Year,Month,Day,Hour,Minute,Value (Times are PST for temperature in C)
2021,08,01,00,00,19.90
2021,08,01,00,01,19.90
2021,08,01,00,02,19.90
2021,08,01,00,03,19.90
2021,08,01,00,04,19.90
2021,08,01,00,05,20.00
2021,08,01,00,06,20.00
2021,08,01,00,07,19.90
2021,08,01,00,08,19.90
2021,08,01,00,09,19.90
2021,08,01,00,10,19.90
2021,08,01,00,11,19.90
2021,08,01,00,12,19.80
2021,08,01,00,13,19.80
2021,08,01,00,14,19.80
2021,08,01,00,15,19.70
2021,08,01,00,16,19.70
2021,08,01,00,17,19.60
2021,08,01,00,18,19.60
2021,08,01,00,19,19.60
2021,08,01,00,20,19.50
2021,08,01,00,21,19.50
2021,08,01,00,22,19.40
2021,08,01,00,23,19.40
2021,08,01,00,24,19.40
2021,08,01,00,25,19.30
2021,08,01,00,26,19.30
2021,08,01,00,27,19.30
2021,08,01,00,28,19.30
2021,08,01,00,29,19.30
2021,08,01,00,30,19.20
2021,08,01,00,31,19.20
2021,08,01,00,32,19.20
2021,08,01,00,33,19.20
2021,08,01,00,34,19.20
2021,08,01,00,35,19.20
2021,08,01,00,36,19.20
2021,08,01,00,37,19.10
2021,08,01,00,38,19.10
2021,08,01,00,39,19.10
2021,08,01,00,40,19.10
2021,08,01,00,41,19.10
2021,08,01,00,42,19.10
2021,08,01,00,43,19.10
2021,08,01,00,44,19.00
2021,08,01,00,45,19.00
2021,08,01,00,46,19.00
2021,08,01,00,47,18.90
2021,08,01,00,48,18.90
2021,08,01,00,49,18.90
2021,08,01,00,50,18.90
2021,08,01,00,51,18.90
2021,08,01,00,52,18.90
2021,08,01,00,53,18.80
2021,08,01,00,54,18.80
2021,08,01,00,55,18.80
2021,08,01,00,56,18.70
2021,08,01,00,57,18.70
2021,08,01,00,58,18.70
2021,08,01,00,59,18.70
2021,08,01,01,00,18.80
2021,08,01,01,01,18.80
2021,08,01,01,02,18.80
2021,08,01,01,03,18.80
2021,08,01,01,04,18.80
2021,08,01,01,05,18.80
2021,08,01,01,06,18.80
2021,08,01,01,07,18.80
2021,08,01,01,08,18.80
2021,08,01,01,09,18.80
2021,08,01,01,10,18.80
2021,08,01,01,11,18.90
2021,08,01,01,12,18.90
2021,08,01,01,13,18.90
2021,08,01,01,14,18.90
2021,08,01,01,15,18.90
2021,08,01,01,16,18.90
2021,08,01,01,17,18.90
2021,08,01,01,18,18.80
2021,08,01,01,19,18.80
2021,08,01,01,20,18.80
2021,08,01,01,21,18.80
2021,08,01,01,22,18.80
2021,08,01,01,23,18.80
2021,08,01,01,24,18.70
2021,08,01,01,25,18.70
2021,08,01,01,26,18.70
2021,08,01,01,27,18.70
2021,08,01,01,28,18.70
2021,08,01,01,29,18.70
2021,08,01,01,30,18.60
2021,08,01,01,31,18.40
2021,08,01,01,32,18.30
2021,08,01,01,33,18.10
2021,08,01,01,34,18.00
2021,08,01,01,35,17.70
2021,08,01,01,36,17.50
2021,08,01,01,37,17.30
2021,08,01,01,38,17.10
2021,08,01,01,39,16.90
2021,08,01,01,40,16.80
2021,08,01,01,41,16.70
2021,08,01,01,42,16.60
2021,08,01,01,43,16.50
2021,08,01,01,44,16.40
2021,08,01,01,45,16.30
2021,08,01,01,46,16.20
2021,08,01,01,47,16.20
2021,08,01,01,48,16.10
2021,08,01,01,49,16.10
2021,08,01,01,50,16.00
2021,08,01,01,51,16.00
2021,08,01,01,52,15.90
2021,08,01,01,53,15.90
2021,08,01,01,54,15.90
2021,08,01,01,55,15.90
2021,08,01,01,56,15.80
2021,08,01,01,57,15.80
2021,08,01,01,58,15.80
2021,08,01,01,59,15.80
2021,08,01,02,00,15.80
2021,08,01,02,01,15.80
2021,08,01,02,02,15.80
2021,08,01,02,03,15.80
2021,08,01,02,04,15.80
2021,08,01,02,05,15.80
2021,08,01,02,06,15.80
2021,08,01,02,07,15.80
2021,08,01,02,08,15.80
2021,08,01,02,09,15.80
2021,08,01,02,10,15.80
2021,08,01,02,11,15.80
2021,08,01,02,12,15.80
2021,08,01,02,13,15.80
2021,08,01,02,14,15.80
2021,08,01,02,15,15.80
2021,08,01,02,16,15.80
2021,08,01,02,17,15.80
2021,08,01,02,18,15.80
2021,08,01,02,19,15.80
2021,08,01,02,20,15.90
2021,08,01,02,21,15.90
2021,08,01,02,22,15.90
2021,08,01,02,23,15.90
2021,08,01,02,24,15.90
2021,08,01,02,25,15.90
2021,08,01,02,26,15.90
2021,08,01,02,27,15.90
2021,08,01,02,28,15.90
2021,08,01,02,29,16.00
2021,08,01,02,30,16.00
2021,08,01,02,31,16.00
2021,08,01,02,32,16.00
2021,08,01,02,33,16.10
2021,08,01,02,34,16.10
2021,08,01,02,35,16.10
2021,08,01,02,36,16.10
2021,08,01,02,37,16.10
2021,08,01,02,38,16.10
2021,08,01,02,39,16.20
2021,08,01,02,40,16.20
2021,08,01,02,41,16.30
2021,08,01,02,42,16.30
2021,08,01,02,43,16.30
2021,08,01,02,44,16.30
2021,08,01,02,45,16.40
2021,08,01,02,46,16.40
2021,08,01,02,47,16.40
2021,08,01,02,48,16.50
2021,08,01,02,49,16.50
2021,08,01,02,50,16.50
2021,08,01,02,51,16.50
2021,08,01,02,52,16.60
2021,08,01,02,53,16.60
2021,08,01,02,54,16.60
2021,08,01,02,55,16.60
2021,08,01,02,56,16.60
2021,08,01,02,57,16.60
2021,08,01,02,58,16.60
2021,08,01,02,59,16.60
2021,08,01,03,00,16.60
2021,08,01,03,01,16.60
2021,08,01,03,02,16.60
2021,08,01,03,03,16.50
2021,08,01,03,04,16.50
2021,08,01,03,05,16.40
2021,08,01,03,06,16.30
2021,08,01,03,07,16.20
2021,08,01,03,08,16.20
2021,08,01,03,09,16.10
2021,08,01,03,10,16.10
2021,08,01,03,11,16.00
2021,08,01,03,12,16.00
2021,08,01,03,13,15.90
2021,08,01,03,14,15.90
2021,08,01,03,15,15.90
2021,08,01,03,16,15.80
2021,08,01,03,17,15.80
2021,08,01,03,18,15.60
2021,08,01,03,19,15.50
2021,08,01,03,20,15.40
2021,08,01,03,21,15.30
2021,08,01,03,22,15.20
2021,08,01,03,23,15.10
2021,08,01,03,24,15.00
2021,08,01,03,25,14.90
2021,08,01,03,26,14.90
2021,08,01,03,27,14.80
2021,08,01,03,28,14.70
2021,08,01,03,29,14.70
2021,08,01,03,30,14.70
2021,08,01,03,31,14.60
2021,08,01,03,32,14.60
2021,08,01,03,33,14.60
2021,08,01,03,34,14.60
2021,08,01,03,35,14.60
2021,08,01,03,36,14.60
2021,08,01,03,37,14.50
2021,08,01,03,38,14.50
2021,08,01,03,39,14.50
2021,08,01,03,40,14.50
2021,08,01,03,41,14.50
2021,08,01,03,42,14.50
2021,08,01,03,43,14.50
2021,08,01,03,44,14.40
2021,08,01,03,45,14.40
2021,08,01,03,46,14.40
2021,08,01,03,47,14.30
2021,08,01,03,48,14.30
2021,08,01,03,49,14.30
2021,08,01,03,50,14.20
2021,08,01,03,51,14.20
2021,08,01,03,52,14.10
2021,08,01,03,53,14.10
2021,08,01,03,54,14.10
2021,08,01,03,55,14.00
2021,08,01,03,56,14.00
2021,08,01,03,57,14.00
2021,08,01,03,58,13.90
2021,08,01,03,59,13.90
2021,08,01,04,00,13.90
2021,08,01,04,01,13.90
2021,08,01,04,02,13.90
2021,08,01,04,03,13.90
2021,08,01,04,04,13.90
2021,08,01,04,08,13.90
2021,08,01,04,09,13.90
2021,08,01,04,10,13.90
2021,08,01,04,11,13.90
2021,08,01,04,12,13.90
2021,08,01,04,13,13.90
2021,08,01,04,14,13.90
2021,08,01,04,15,13.90
2021,08,01,04,16,13.90
2021,08,01,04,17,13.90
2021,08,01,04,18,13.90
2021,08,01,04,19,13.90
2021,08,01,04,20,13.90
2021,08,01,04,21,13.90
2021,08,01,04,22,13.90
2021,08,01,04,23,13.90
2021,08,01,04,24,13.90
2021,08,01,04,25,13.90
2021,08,01,04,26,13.90
2021,08,01,04,27,13.90
2021,08,01,04,28,14.00
2021,08,01,04,29,14.00
2021,08,01,04,30,14.10
2021,08,01,04,31,14.20
2021,08,01,04,32,14.20
2021,08,01,04,33,14.30
2021,08,01,04,34,14.30
2021,08,01,04,35,14.30
2021,08,01,04,36,14.30
2021,08,01,04,37,14.40
2021,08,01,04,38,14.40
2021,08,01,04,39,14.40
2021,08,01,04,40,14.40
2021,08,01,04,41,14.40
2021,08,01,04,42,14.40
2021,08,01,04,43,14.50
2021,08,01,04,44,14.50
2021,08,01,04,45,14.50
2021,08,01,04,46,14.60
2021,08,01,04,47,14.60
2021,08,01,04,48,14.60
2021,08,01,04,49,14.60
2021,08,01,04,50,14.50
2021,08,01,04,51,14.50
2021,08,01,04,52,14.50
2021,08,01,04,53,14.50
2021,08,01,04,54,14.50
2021,08,01,04,55,14.50
2021,08,01,04,56,14.50
2021,08,01,04,57,14.50
2021,08,01,04,58,14.50
2021,08,01,04,59,14.50
2021,08,01,05,00,14.50
2021,08,01,05,01,14.50
2021,08,01,05,02,14.50
2021,08,01,05,03,14.50
2021,08,01,05,04,14.50
2021,08,01,05,05,14.50
2021,08,01,05,06,14.50
2021,08,01,05,07,14.50
2021,08,01,05,08,14.50
2021,08,01,05,09,14.50
2021,08,01,05,10,14.60
2021,08,01,05,11,14.60
2021,08,01,05,12,14.70
2021,08,01,05,13,14.90
2021,08,01,05,14,15.00
2021,08,01,05,15,15.10
2021,08,01,05,16,15.20
2021,08,01,05,17,15.20
2021,08,01,05,18,15.40
2021,08,01,05,19,15.50
2021,08,01,05,20,15.60
2021,08,01,05,21,15.70
2021,08,01,05,22,15.80
2021,08,01,05,23,16.00
2021,08,01,05,24,16.10
2021,08,01,05,25,16.20
2021,08,01,05,26,16.30
2021,08,01,05,27,16.30
2021,08,01,05,28,16.40
2021,08,01,05,29,16.50
2021,08,01,05,30,16.60
2021,08,01,05,31,16.60
2021,08,01,05,32,16.70
2021,08,01,05,33,16.60
2021,08,01,05,34,16.50
2021,08,01,05,35,16.40
2021,08,01,05,36,16.40
2021,08,01,05,37,16.20
2021,08,01,05,38,16.10
2021,08,01,05,39,15.90
2021,08,01,05,40,15.80
2021,08,01,05,41,15.60
2021,08,01,05,42,15.40
2021,08,01,05,43,15.30
2021,08,01,05,44,15.20
2021,08,01,05,45,15.10
2021,08,01,05,46,15.10
2021,08,01,05,47,15.10
2021,08,01,05,48,15.00
2021,08,01,05,49,15.00
2021,08,01,05,50,14.90
2021,08,01,05,51,14.90
2021,08,01,05,52,14.80
2021,08,01,05,53,14.80
2021,08,01,05,54,14.80
2021,08,01,05,55,14.70
2021,08,01,05,56,14.70
2021,08,01,05,57,14.70
2021,08,01,05,58,14.60
2021,08,01,05,59,14.60
2021,08,01,06,00,14.50
2021,08,01,06,01,14.50
2021,08,01,06,02,14.50
2021,08,01,06,03,14.40
2021,08,01,06,04,14.40
2021,08,01,06,05,14.40
2021,08,01,06,06,14.40
2021,08,01,06,07,14.40
2021,08,01,06,08,14.40
2021,08,01,06,09,14.30
2021,08,01,06,10,14.30
2021,08,01,06,11,14.30
2021,08,01,06,12,14.30
2021,08,01,06,13,14.30
2021,08,01,06,14,14.30
2021,08,01,06,15,14.30
2021,08,01,06,16,14.20
2021,08,01,06,17,14.20
2021,08,01,06,18,14.20
2021,08,01,06,19,14.20
2021,08,01,06,20,14.20
2021,08,01,06,21,14.20
2021,08,01,06,22,14.10
2021,08,01,06,23,14.10
2021,08,01,06,24,14.00
2021,08,01,06,25,13.90
2021,08,01,06,26,13.90
2021,08,01,06,27,13.90
2021,08,01,06,28,13.90
2021,08,01,06,29,13.90
2021,08,01,06,30,13.90
2021,08,01,06,31,13.80
2021,08,01,06,32,13.80
2021,08,01,06,33,13.80
2021,08,01,06,34,13.80
2021,08,01,06,35,13.80
2021,08,01,06,36,13.80
2021,08,01,06,37,13.80
2021,08,01,06,38,13.80
2021,08,01,06,39,13.90
2021,08,01,06,40,13.90
2021,08,01,06,41,13.90
2021,08,01,06,42,13.90
2021,08,01,06,43,13.90
2021,08,01,06,44,13.90
2021,08,01,06,45,14.00
2021,08,01,06,46,14.00
2021,08,01,06,47,14.00
2021,08,01,06,48,14.10
2021,08,01,06,49,14.10
2021,08,01,06,50,14.20
2021,08,01,06,51,14.20
2021,08,01,06,52,14.20
2021,08,01,06,53,14.30
2021,08,01,06,54,14.30
2021,08,01,06,55,14.30
2021,08,01,06,56,14.30
2021,08,01,06,57,14.30
2021,08,01,06,58,14.30
2021,08,01,06,59,14.30
2021,08,01,07,00,14.30
2021,08,01,07,01,14.30
2021,08,01,07,02,14.30
2021,08,01,07,03,14.30
2021,08,01,07,04,14.30
2021,08,01,07,05,14.30
2021,08,01,07,06,14.30
2021,08,01,07,07,14.30
2021,08,01,07,08,14.30
2021,08,01,07,09,14.30
2021,08,01,07,10,14.30
2021,08,01,07,11,14.30
2021,08,01,07,12,14.30
2021,08,01,07,13,14.30
2021,08,01,07,14,14.30
2021,08,01,07,15,14.30
2021,08,01,07,16,14.30
2021,08,01,07,17,14.30
2021,08,01,07,18,14.40
2021,08,01,07,19,14.40
2021,08,01,07,20,14.40
2021,08,01,07,21,14.40
2021,08,01,07,22,14.50
2021,08,01,07,23,14.50
2021,08,01,07,24,14.60
2021,08,01,07,25,14.60
2021,08,01,07,26,14.60
2021,08,01,07,27,14.70
2021,08,01,07,28,14.70
2021,08,01,07,29,14.70
2021,08,01,07,30,14.70
2021,08,01,07,31,14.80
2021,08,01,07,32,14.80
2021,08,01,07,33,14.90
2021,08,01,07,34,14.90
2021,08,01,07,35,15.00
2021,08,01,07,36,15.00
2021,08,01,07,37,15.10
2021,08,01,07,38,15.10
2021,08,01,07,39,15.20
2021,08,01,07,40,15.20
2021,08,01,07,41,15.20
2021,08,01,07,42,15.30
2021,08,01,07,43,15.30
2021,08,01,07,44,15.40
2021,08,01,07,45,15.40
2021,08,01,07,46,15.40
2021,08,01,07,47,15.50
2021,08,01,07,48,15.50
2021,08,01,07,49,15.50
2021,08,01,07,50,15.60
2021,08,01,07,51,15.60
2021,08,01,07,52,15.60
2021,08,01,07,53,15.60
2021,08,01,07,54,15.60
2021,08,01,07,55,15.60
2021,08,01,07,56,15.70
2021,08,01,07,57,15.70
2021,08,01,07,58,15.70
2021,08,01,07,59,15.70
2021,08,01,08,00,15.80
2021,08,01,08,01,15.80
2021,08,01,08,02,15.80
2021,08,01,08,03,15.80
2021,08,01,08,04,15.80
2021,08,01,08,05,15.90
2021,08,01,08,06,15.80
2021,08,01,08,07,15.80
2021,08,01,08,08,15.90
2021,08,01,08,09,15.90
2021,08,01,08,10,15.90
2021,08,01,08,11,15.90
2021,08,01,08,12,15.90
2021,08,01,08,13,15.90
2021,08,01,08,14,15.90
2021,08,01,08,15,15.90
2021,08,01,08,16,15.90
2021,08,01,08,17,16.00
2021,08,01,08,18,16.00
2021,08,01,08,19,16.10
2021,08,01,08,20,16.10
2021,08,01,08,21,16.10
2021,08,01,08,22,16.10
2021,08,01,08,23,16.10
2021,08,01,08,24,16.20
2021,08,01,08,25,16.20
2021,08,01,08,26,16.20
2021,08,01,08,27,16.20
2021,08,01,08,28,16.30
2021,08,01,08,29,16.30
2021,08,01,08,30,16.30
2021,08,01,08,31,16.40
2021,08,01,08,32,16.40
2021,08,01,08,33,16.50
2021,08,01,08,34,16.60
2021,08,01,08,35,16.60
2021,08,01,08,36,16.60
2021,08,01,08,37,16.70
2021,08,01,08,38,16.70
2021,08,01,08,39,16.80
2021,08,01,08,40,16.80
2021,08,01,08,41,16.90
2021,08,01,08,42,16.90
2021,08,01,08,43,16.90
2021,08,01,08,44,17.00
2021,08,01,08,45,17.00
2021,08,01,08,46,17.10
2021,08,01,08,47,17.10
2021,08,01,08,48,17.20
2021,08,01,08,49,17.20
2021,08,01,08,50,17.30
2021,08,01,08,51,17.30
2021,08,01,08,52,17.40
2021,08,01,08,53,17.50
2021,08,01,08,54,17.60
2021,08,01,08,55,17.70
2021,08,01,08,56,17.80
2021,08,01,08,57,17.90
2021,08,01,08,58,18.00
2021,08,01,08,59,18.00
2021,08,01,09,00,18.10
2021,08,01,09,01,18.20
2021,08,01,09,02,18.30
2021,08,01,09,03,18.40
2021,08,01,09,04,18.50
2021,08,01,09,05,18.60
2021,08,01,09,06,18.70
2021,08,01,09,07,18.80
2021,08,01,09,08,18.90
2021,08,01,09,09,18.90
2021,08,01,09,10,19.00
2021,08,01,09,11,19.10
2021,08,01,09,12,19.20
2021,08,01,09,13,19.30
2021,08,01,09,14,19.30
2021,08,01,09,15,19.30
2021,08,01,09,16,19.40
2021,08,01,09,17,19.40
2021,08,01,09,18,19.50
2021,08,01,09,19,19.50
2021,08,01,09,20,19.60
2021,08,01,09,21,19.60
2021,08,01,09,22,19.70
2021,08,01,09,23,19.80
2021,08,01,09,24,19.80
2021,08,01,09,25,19.90
2021,08,01,09,26,19.90
2021,08,01,09,27,20.00
2021,08,01,09,28,20.10
2021,08,01,09,29,20.10
2021,08,01,09,30,20.20
2021,08,01,09,31,20.20
2021,08,01,09,32,20.20
2021,08,01,09,33,20.10
2021,08,01,09,34,20.10
2021,08,01,09,35,20.00
2021,08,01,09,36,19.90
2021,08,01,09,37,19.80
2021,08,01,09,38,19.70
2021,08,01,09,39,19.60
2021,08,01,09,40,19.60
2021,08,01,09,41,19.50
2021,08,01,09,42,19.40
2021,08,01,09,43,19.30
2021,08,01,09,44,19.30
2021,08,01,09,45,19.20
2021,08,01,09,46,19.20
2021,08,01,09,47,19.20
2021,08,01,09,48,19.20
2021,08,01,09,49,19.20
2021,08,01,09,50,19.30
2021,08,01,09,51,19.40
2021,08,01,09,52,19.40
2021,08,01,09,53,19.50
2021,08,01,09,54,19.60
2021,08,01,09,55,19.70
2021,08,01,09,56,19.80
2021,08,01,09,57,19.90
2021,08,01,09,58,19.90
2021,08,01,09,59,20.00
2021,08,01,10,00,20.10
2021,08,01,10,01,20.30
2021,08,01,10,02,20.40
2021,08,01,10,03,20.50
2021,08,01,10,04,20.60
2021,08,01,10,05,20.70
2021,08,01,10,06,20.80
2021,08,01,10,07,20.90
2021,08,01,10,08,21.00
2021,08,01,10,09,21.10
2021,08,01,10,10,21.10
2021,08,01,10,11,21.20
2021,08,01,10,12,21.20
2021,08,01,10,13,21.10
2021,08,01,10,14,20.90
2021,08,01,10,15,20.80
2021,08,01,10,16,20.70
2021,08,01,10,17,20.50
2021,08,01,10,18,20.30
2021,08,01,10,19,20.00
2021,08,01,10,20,19.70
2021,08,01,10,21,19.50
2021,08,01,10,22,19.40
2021,08,01,10,23,19.30
2021,08,01,10,24,19.20
2021,08,01,10,25,19.20
2021,08,01,10,26,19.10
2021,08,01,10,27,19.00
2021,08,01,10,28,18.90
2021,08,01,10,29,18.80
2021,08,01,10,30,18.70
2021,08,01,10,31,18.70
2021,08,01,10,32,18.60
2021,08,01,10,33,18.50
2021,08,01,10,34,18.40
2021,08,01,10,35,18.30
2021,08,01,10,36,18.10
2021,08,01,10,37,18.00
2021,08,01,10,38,18.00
2021,08,01,10,39,17.90
2021,08,01,10,40,17.90
2021,08,01,10,41,17.90
2021,08,01,10,42,17.90
2021,08,01,10,43,17.90
2021,08,01,10,44,17.90
2021,08,01,10,45,17.90
2021,08,01,10,46,17.90
2021,08,01,10,47,17.90
2021,08,01,10,48,18.00
2021,08,01,10,49,18.00
2021,08,01,10,50,18.10
2021,08,01,10,51,18.20
2021,08,01,10,52,18.40
2021,08,01,10,53,18.60
2021,08,01,10,54,18.80
2021,08,01,10,55,19.00
2021,08,01,10,56,19.20
2021,08,01,10,57,19.30
2021,08,01,10,58,19.40
2021,08,01,10,59,19.50
2021,08,01,11,00,19.60
2021,08,01,11,01,19.70
2021,08,01,11,02,19.80
2021,08,01,11,03,19.90
2021,08,01,11,04,20.00
2021,08,01,11,05,20.10
2021,08,01,11,06,20.20
2021,08,01,11,07,20.20
2021,08,01,11,08,20.20
2021,08,01,11,09,20.20
2021,08,01,11,10,20.30
2021,08,01,11,11,20.30
2021,08,01,11,12,20.30
2021,08,01,11,13,20.30
2021,08,01,11,14,20.20
2021,08,01,11,15,20.10
2021,08,01,11,16,20.00
2021,08,01,11,17,20.00
2021,08,01,11,18,20.00
2021,08,01,11,19,20.00
2021,08,01,11,20,20.10
2021,08,01,11,21,20.20
2021,08,01,11,22,20.30
2021,08,01,11,23,20.30
2021,08,01,11,24,20.40
2021,08,01,11,25,20.40
2021,08,01,11,26,20.50
2021,08,01,11,27,20.60
2021,08,01,11,28,20.70
2021,08,01,11,29,20.70
2021,08,01,11,30,20.70
2021,08,01,11,31,20.70
2021,08,01,11,32,20.70
2021,08,01,11,33,20.60
2021,08,01,11,34,20.50
2021,08,01,11,35,20.40
2021,08,01,11,36,20.40
2021,08,01,11,37,20.40
2021,08,01,11,38,20.30
2021,08,01,11,39,20.30
2021,08,01,11,40,20.30
2021,08,01,11,41,20.30
2021,08,01,11,42,20.10
2021,08,01,11,43,20.10
2021,08,01,11,44,20.00
2021,08,01,11,45,19.90
2021,08,01,11,46,19.90
2021,08,01,11,47,19.80
2021,08,01,11,48,19.70
2021,08,01,11,49,19.70
2021,08,01,11,50,19.70
2021,08,01,11,51,19.70
2021,08,01,11,52,19.80
2021,08,01,11,53,19.80
2021,08,01,11,54,19.80
2021,08,01,11,55,19.80
2021,08,01,11,56,19.90
2021,08,01,11,57,19.90
2021,08,01,11,58,20.00
2021,08,01,11,59,20.10
2021,08,01,12,00,20.30
2021,08,01,12,01,20.40
2021,08,01,12,02,20.40
2021,08,01,12,03,20.40
2021,08,01,12,04,20.50
2021,08,01,12,05,20.60
2021,08,01,12,06,20.60
2021,08,01,12,07,20.70
2021,08,01,12,08,20.80
2021,08,01,12,09,20.80
2021,08,01,12,10,20.80
2021,08,01,12,11,20.80
2021,08,01,12,12,20.80
2021,08,01,12,13,20.90
2021,08,01,12,14,20.90
2021,08,01,12,15,20.90
2021,08,01,12,16,20.90
2021,08,01,12,17,21.00
2021,08,01,12,18,21.00
2021,08,01,12,19,21.10
2021,08,01,12,20,21.10
2021,08,01,12,21,21.20
2021,08,01,12,22,21.30
2021,08,01,12,23,21.50
2021,08,01,12,24,21.60
2021,08,01,12,25,21.80
2021,08,01,12,26,21.90
2021,08,01,12,27,22.10
2021,08,01,12,28,22.20
2021,08,01,12,29,22.40
2021,08,01,12,30,22.60
2021,08,01,12,31,22.80
2021,08,01,12,32,22.80
2021,08,01,12,33,22.80
2021,08,01,12,34,22.80
2021,08,01,12,35,22.80
2021,08,01,12,36,22.70
2021,08,01,12,37,22.70
2021,08,01,12,38,22.80
2021,08,01,12,39,22.80
2021,08,01,12,40,22.70
2021,08,01,12,41,22.70
2021,08,01,12,42,22.60
2021,08,01,12,43,22.50
2021,08,01,12,44,22.40
2021,08,01,12,45,22.30
2021,08,01,12,46,22.20
2021,08,01,12,47,22.00
2021,08,01,12,48,21.90
2021,08,01,12,49,21.80
2021,08,01,12,50,21.80
2021,08,01,12,51,21.70
2021,08,01,12,52,21.70
2021,08,01,12,53,21.60
2021,08,01,12,54,21.60
2021,08,01,12,55,21.50
2021,08,01,12,56,21.40
2021,08,01,12,57,21.40
2021,08,01,12,58,21.40
2021,08,01,12,59,21.40
2021,08,01,13,00,21.40
2021,08,01,13,01,21.40
2021,08,01,13,02,21.50
2021,08,01,13,03,21.50
2021,08,01,13,04,21.50
2021,08,01,13,05,21.50
2021,08,01,13,06,21.50
2021,08,01,13,07,21.50
2021,08,01,13,08,21.60
2021,08,01,13,09,21.60
2021,08,01,13,10,21.60
2021,08,01,13,11,21.60
2021,08,01,13,12,21.70
2021,08,01,13,13,21.70
2021,08,01,13,14,21.80
2021,08,01,13,15,21.80
2021,08,01,13,16,21.90
2021,08,01,13,17,21.90
2021,08,01,13,18,22.00
2021,08,01,13,19,22.00
2021,08,01,13,20,22.00
2021,08,01,13,21,22.00
2021,08,01,13,22,22.10
2021,08,01,13,23,22.10
2021,08,01,13,24,22.20
2021,08,01,13,25,22.30
2021,08,01,13,26,22.30
2021,08,01,13,27,22.40
2021,08,01,13,28,22.50
2021,08,01,13,29,22.50
2021,08,01,13,30,22.60
2021,08,01,13,31,22.60
2021,08,01,13,32,22.70
2021,08,01,13,33,22.70
2021,08,01,13,34,22.70
2021,08,01,13,35,22.70
2021,08,01,13,36,22.70
2021,08,01,13,37,22.70
2021,08,01,13,38,22.70
2021,08,01,13,39,22.70
2021,08,01,13,40,22.80
2021,08,01,13,41,22.80
2021,08,01,13,42,22.80
2021,08,01,13,43,22.80
2021,08,01,13,44,22.80
2021,08,01,13,45,22.80
2021,08,01,13,46,22.80
2021,08,01,13,47,22.80
2021,08,01,13,48,22.80
2021,08,01,13,49,22.80
2021,08,01,13,50,22.80
2021,08,01,13,51,22.70
2021,08,01,13,52,22.60
2021,08,01,13,53,22.50
2021,08,01,13,54,22.40
2021,08,01,13,55,22.40
2021,08,01,13,56,22.30
2021,08,01,13,57,22.30
2021,08,01,13,58,22.30
2021,08,01,13,59,22.30
2021,08,01,14,00,22.20
2021,08,01,14,01,22.20
2021,08,01,14,02,22.20
2021,08,01,14,03,22.20
2021,08,01,14,04,22.20
2021,08,01,14,05,22.20
2021,08,01,14,06,22.30
2021,08,01,14,07,22.40
2021,08,01,14,08,22.50
2021,08,01,14,09,22.60
2021,08,01,14,10,22.70
2021,08,01,14,11,22.80
2021,08,01,14,12,22.80
2021,08,01,14,13,22.80
2021,08,01,14,14,22.90
2021,08,01,14,15,22.90
2021,08,01,14,16,23.00
2021,08,01,14,17,23.00
2021,08,01,14,18,23.10
2021,08,01,14,19,23.10
2021,08,01,14,20,23.20
2021,08,01,14,21,23.20
2021,08,01,14,22,23.30
2021,08,01,14,23,23.30
2021,08,01,14,24,23.40
2021,08,01,14,25,23.40
2021,08,01,14,26,23.40
2021,08,01,14,27,23.30
2021,08,01,14,28,23.30
2021,08,01,14,29,23.40
2021,08,01,14,30,23.40
2021,08,01,14,31,23.40
2021,08,01,14,32,23.50
2021,08,01,14,33,23.50
2021,08,01,14,34,23.50
2021,08,01,14,35,23.60
2021,08,01,14,36,23.50
2021,08,01,14,37,23.40
2021,08,01,14,38,23.30
2021,08,01,14,39,23.20
2021,08,01,14,40,23.00
2021,08,01,14,41,22.90
2021,08,01,14,42,22.80
2021,08,01,14,43,22.80
2021,08,01,14,44,22.80
2021,08,01,14,45,22.80
2021,08,01,14,46,22.80
2021,08,01,14,47,22.80
2021,08,01,14,48,22.80
2021,08,01,14,49,22.80
2021,08,01,14,50,22.70
2021,08,01,14,51,22.70
2021,08,01,14,52,22.60
2021,08,01,14,53,22.60
2021,08,01,14,54,22.60
2021,08,01,14,55,22.70
2021,08,01,14,56,22.80
2021,08,01,14,57,22.80
2021,08,01,14,58,22.90
2021,08,01,14,59,23.00
2021,08,01,15,00,23.20
2021,08,01,15,01,23.30
2021,08,01,15,02,23.40
2021,08,01,15,03,23.50
2021,08,01,15,04,23.60
2021,08,01,15,05,23.60
2021,08,01,15,06,23.70
2021,08,01,15,07,23.70
2021,08,01,15,08,23.80
2021,08,01,15,09,23.80
2021,08,01,15,10,23.80
2021,08,01,15,11,23.80
2021,08,01,15,12,23.80
2021,08,01,15,13,23.90
2021,08,01,15,14,23.90
2021,08,01,15,15,24.00
2021,08,01,15,16,24.00
2021,08,01,15,17,24.10
2021,08,01,15,18,24.10
2021,08,01,15,19,24.10
2021,08,01,15,20,24.20
2021,08,01,15,21,24.20
2021,08,01,15,22,24.30
2021,08,01,15,23,24.30
2021,08,01,15,24,24.30
2021,08,01,15,25,24.30
2021,08,01,15,26,24.30
2021,08,01,15,27,24.20
2021,08,01,15,28,24.20
2021,08,01,15,29,24.20
2021,08,01,15,30,24.20
2021,08,01,15,31,24.20
2021,08,01,15,32,24.20
2021,08,01,15,33,24.30
2021,08,01,15,34,24.30
2021,08,01,15,35,24.20
2021,08,01,15,36,24.20
2021,08,01,15,37,24.10
2021,08,01,15,38,24.00
2021,08,01,15,39,24.00
2021,08,01,15,40,23.90
2021,08,01,15,41,23.90
2021,08,01,15,42,23.80
2021,08,01,15,43,23.80
2021,08,01,15,44,23.70
2021,08,01,15,45,23.60
2021,08,01,15,46,23.60
2021,08,01,15,47,23.60
2021,08,01,15,48,23.50
2021,08,01,15,49,23.50
2021,08,01,15,50,23.40
2021,08,01,15,51,23.40
2021,08,01,15,52,23.30
2021,08,01,15,53,23.30
2021,08,01,15,54,23.20
2021,08,01,15,55,23.20
2021,08,01,15,56,23.20
2021,08,01,15,57,23.20
2021,08,01,15,58,23.20
2021,08,01,15,59,23.20
2021,08,01,16,00,23.30
2021,08,01,16,01,23.30
2021,08,01,16,02,23.40
2021,08,01,16,03,23.40
2021,08,01,16,04,23.50
2021,08,01,16,05,23.50
2021,08,01,16,06,23.60
2021,08,01,16,07,23.70
2021,08,01,16,08,23.80
2021,08,01,16,09,23.80
2021,08,01,16,10,23.80
2021,08,01,16,11,23.90
2021,08,01,16,12,23.90
2021,08,01,16,13,24.00
2021,08,01,16,14,24.10
2021,08,01,16,15,24.20
2021,08,01,16,16,24.30
2021,08,01,16,17,24.40
2021,08,01,16,18,24.50
2021,08,01,16,19,24.60
2021,08,01,16,20,24.60
2021,08,01,16,21,24.70
2021,08,01,16,22,24.80
2021,08,01,16,23,24.80
2021,08,01,16,24,24.80
2021,08,01,16,25,24.80
2021,08,01,16,26,24.80
2021,08,01,16,27,24.80
2021,08,01,16,28,24.80
2021,08,01,16,29,24.90
2021,08,01,16,30,24.90
2021,08,01,16,31,24.90
2021,08,01,16,32,24.80
2021,08,01,16,33,24.70
2021,08,01,16,34,24.60
2021,08,01,16,35,24.50
2021,08,01,16,36,24.40
2021,08,01,16,37,24.30
2021,08,01,16,38,24.20
2021,08,01,16,39,24.10
2021,08,01,16,40,24.00
2021,08,01,16,41,23.90
2021,08,01,16,42,23.80
2021,08,01,16,43,23.80
2021,08,01,16,44,23.80
2021,08,01,16,45,23.80
2021,08,01,16,46,23.70
2021,08,01,16,47,23.70
2021,08,01,16,48,23.70
2021,08,01,16,49,23.70
2021,08,01,16,50,23.70
2021,08,01,16,51,23.60
2021,08,01,16,52,23.50
2021,08,01,16,53,23.30
2021,08,01,16,54,23.20
2021,08,01,16,55,23.00
2021,08,01,16,56,22.80
2021,08,01,16,57,22.60
2021,08,01,16,58,22.50
2021,08,01,16,59,22.30
2021,08,01,17,00,22.30
2021,08,01,17,01,22.30
2021,08,01,17,02,22.40
2021,08,01,17,03,22.40
2021,08,01,17,04,22.50
2021,08,01,17,05,22.50
2021,08,01,17,06,22.50
2021,08,01,17,07,22.40
2021,08,01,17,08,22.30
2021,08,01,17,09,22.20
2021,08,01,17,10,22.00
2021,08,01,17,11,21.90
2021,08,01,17,12,21.70
2021,08,01,17,13,21.60
2021,08,01,17,14,21.60
2021,08,01,17,15,21.60
2021,08,01,17,16,21.60
2021,08,01,17,17,21.60
2021,08,01,17,18,21.60
2021,08,01,17,19,21.60
2021,08,01,17,20,21.70
2021,08,01,17,21,21.80
2021,08,01,17,22,21.90